GSAT-17 (42815 NORAD) Tracking and Keplerian Element Data

This shows tracking and keplerian element data for the satellite.

Feedback or suggestion? Click here.




ElementValue
Catalog42815
NameGSAT-17
Epoch Orbit392
Epoch Day202.90796102
Epoch Year2018
RAAN274.3294
Inclination0.1135
Eccentricity0.000258
Argument of Perigee32.1603
Mean Anonmoly53.4706
Mean Motion1.00270437
Decay Rate-2.71E-06
L11 42815U 17040B 18202.90796102 -.00000271 00000-0 00000+0 0 9999
L22 42815 0.1135 274.3294 0002580 32.1603 53.4706 1.00270437 3926

Live tracking and technical data element details for GSAT-17 (NORAD 42815). GSAT-17 can be tracked NOW for your location showing map with azimuth and elevation plus other details from your city location.

Track the satellite on the map from your city or location and see movement details for azimuth, elevation, latitude, longitude, range, height, and movement on the map or in text.







IsCatalogInMostPopularTable: catalog: 42815, numindb: 50
Update: records affected: 1



GetName: 42815 GSAT-17

Hit Count: updated at: Mon, 23 Jul 2018 07:59:33 GMT